Printer-friendly version

IAU Minor Planet Center

Minor Planet Center

MPEC 2006-E19 : 2006 EW

The following Minor Planet Electronic Circular may be linked-to from your own Web pages, but must not otherwise be redistributed electronically.


Read MPEC 2006-E18 Read MPEC 2006-E20


M.P.E.C. 2006-E19                                Issued 2006 Mar. 6, 20:07 UT

     The Minor Planet Electronic Circulars contain information on unusual
         minor planets and routine data on comets.  They are published
   on behalf of Commission 20 of the International Astronomical Union by the
          Minor Planet Center, Smithsonian Astrophysical Observatory,
                          Cambridge, MA 02138, U.S.A.

                  Supported in part by the Brinson Foundation
                  Supported in part by the TABASGO Foundation
             Prepared using the Tamkin Foundation Computer Network

                              MPC@CFA.HARVARD.EDU
          URL http://cfa-www.harvard.edu/iau/mpc.html  ISSN 1523-6714

                                    2006 EW

Observations:
     K06E00W* C2006 03 04.19002 08 11 15.68 +23 46 25.0          19.2 V EE019G96
     K06E00W  C2006 03 04.19558 08 11 20.97 +23 46 47.3          19.2 V EE019G96
     K06E00W  C2006 03 04.20121 08 11 26.37 +23 47 10.1          19.2 V EE019G96
     K06E00W  C2006 03 04.20693 08 11 31.77 +23 47 33.2          19.2 V EE019G96
     K06E00W  C2006 03 04.28090 08 12 42.44 +23 52 23.0          18.9 V EE019G96
     K06E00W  C2006 03 04.29061 08 12 51.73 +23 53 00.3          19.1 V EE019G96
     K06E00W  C2006 03 04.30054 08 13 01.27 +23 53 38.2          19.0 V EE019G96
     K06E00W  C2006 03 04.85032 08 22 14.24 +24 27 44.2                 EE019J95
     K06E00W  C2006 03 04.85347 08 22 17.23 +24 27 56.1                 EE019J95
     K06E00W  C2006 03 04.85665 08 22 20.25 +24 28 07.6          19.0 R EE019J95
     K06E00W  C2006 03 05.11699 08 26 33.06 +24 43 47.2          19.0 R EE019932
     K06E00W  C2006 03 05.12511 08 26 40.62 +24 44 14.9          19.2 R EE019932
     K06E00W  C2006 03 05.14804 08 27 01.94 +24 45 32.4          19.2 R EE019932
     K06E00W  C2006 03 05.15214 08 27 05.74 +24 45 46.0          18.9 R EE019932
     K06E00W  C2006 03 05.18634 08 27 42.26 +24 48 04.2          19.0 V EE019G96
     K06E00W  C2006 03 05.18747 08 27 43.28 +24 48 08.3          19.2 R EE019854
     K06E00W  C2006 03 05.19004 08 27 45.74 +24 48 17.6          19.2 R EE019854
     K06E00W  C2006 03 05.19208 08 27 47.55 +24 48 24.1          19.1 V EE019G96
     K06E00W  C2006 03 05.19262 08 27 48.09 +24 48 26.7          19.2 R EE019854
     K06E00W  C2006 03 05.19779 08 27 52.81 +24 48 43.4          19.2 V EE019G96
     K06E00W  C2006 03 05.20155 08 27 56.24 +24 48 59.2          19.6 R EE019701
     K06E00W 5C2006 03 05.20197 08 27 57.67 +24 48 53.3          19.0 R EE019673
     K06E00W  C2006 03 05.20350 08 27 58.10 +24 49 03.0          19.1 V EE019G96
     K06E00W 5C2006 03 05.20729 08 28 02.59 +24 49 12.0                 EE019673
     K06E00W 5C2006 03 05.21771 08 28 12.18 +24 49 47.5                 EE019673
     K06E00W 5C2006 03 05.22662 08 28 20.50 +24 50 17.5                 EE019673
     K06E00W  C2006 03 05.86903 08 38 37.50 +25 23 37.8                 EE019J95
     K06E00W  C2006 03 05.87050 08 38 38.79 +25 23 41.9                 EE019J95
     K06E00W  C2006 03 05.87198 08 38 40.16 +25 23 46.3          19.3 R EE019J95
     K06E00W  C2006 03 06.18008 08 43 27.71 +25 39 01.7          19.1 R EE019734
     K06E00W  C2006 03 06.18225 08 43 29.66 +25 39 07.8          19.2 R EE019734
     K06E00W  C2006 03 06.18443 08 43 31.56 +25 39 13.3          19.1 R EE019734
     K06E00W  C2006 03 06.27615 08 44 54.43 +25 43 38.2          19.3 V EE019G96
     K06E00W  C2006 03 06.27668 08 44 54.86 +25 43 40.0          20.4 V EE019G96
     K06E00W  C2006 03 06.27721 08 44 55.30 +25 43 40.4          19.4 V EE019G96
     K06E00W  C2006 03 06.27774 08 44 55.81 +25 43 41.4          19.1 V EE019G96
     K06E00W  C2006 03 06.33812 08 45 49.10 +25 46 16.2          19.1 V EE019703
     K06E00W  C2006 03 06.33920 08 45 50.14 +25 46 19.0          19.1 V EE019703
     K06E00W  C2006 03 06.34027 08 45 51.15 +25 46 20.5          18.7 V EE019703
     K06E00W  C2006 03 06.34133 08 45 52.05 +25 46 25.3          19.2 V EE019703

Observer details:
673 Table Mountain Observatory, Wrightwood.  Observer J. Young.  0.6-m f/16
    Cassegrain + CCD.
701 Junk Bond Observatory, Sierra Vista.  Observer D. Healy.  0.81-m f/4.4
    Ritchey-Chretien + CCD.
703 Catalina Sky Survey.  Observer E. C. Beshore.  Measurers E. C. Beshore,
    E. J. Christensen, G. J. Garradd, A. R. Gibbs, A. D. Grauer, R. E. Hill,
    R. A. Kowalski, S. M. Larson, R. H. McNaught.  0.68-m Schmidt + CCD.
734 Farpoint Observatory.  Observer D. Tibbets.  0.7-m reflector + CCD.
854 Sabino Canyon Observatory, Tucson.  Observer J. E. McGaha.  0.36-m f/10.0
    Schmidt-Cassegrain + CCD.
932 John J. McCarthy Obs., New Milford.  Observer M. Robson.  0.4-m f/6.5
    Schmidt-Cassegrain + CCD.
G96 Mt. Lemmon Survey.  Observers R. Kowalski, R. E. Hill.  Measurers
    E. C. Beshore, E. J. Christensen, G. J. Garradd, A. R. Gibbs, A. D. Grauer,
    R. E. Hill, R. A. Kowalski, S. M. Larson, R. H. McNaught.  1.5-m reflector
    + CCD.
J95 Great Shefford.  Observer P. Birtwhistle.  0.40-m f/6.0 Schmidt-Cassegrain
    + CCD.

Orbital elements:
2006 EW                                                  Earth MOID = 0.0296 AU
Epoch 2006 Mar. 6.0 TT = JDT 2453800.5                  MPC
M  14.63939              (2000.0)            P               Q
n   0.46273157     Peri.  327.72326     -0.59842627     -0.80006025
a   1.6554521      Node   158.93865     +0.75780520     -0.58237769
e   0.4030484      Incl.    6.76034     +0.26003322     -0.14401328
P   2.13           H   23.5           G   0.15           U   6
Residuals in seconds of arc
060304 G96  0.4+  0.0     060305 G96  0.3-  0.1-    060305 J95  0.2+  0.2-
060304 G96  0.2+  0.2-    060305 854  0.7-  0.2-    060306 734  0.2+  0.1+
060304 G96  0.7+  0.1-    060305 854  0.5+  0.3+    060306 734  0.6+  0.2+
060304 G96  0.1-  0.0     060305 G96  0.4-  0.1+    060306 734  0.1+  0.4-
060304 G96  0.4+  0.1-    060305 854  0.1+  0.6+    060306 G96  0.7+  0.5+
060304 G96  0.1+  0.0     060305 G96  0.4-  0.1-    060306 G96  0.2+  0.9+
060304 G96  0.2+  0.1+    060305 701  0.2+  0.7+    060306 G96  0.2-  0.1-
060304 J95  0.3-  0.3-    060305 673  0.5+  0.5+    060306 G96  0.4+  0.5-
060304 J95  0.3-  0.0     060305 G96  0.0   0.1+    060306 703  1.6-  0.3-
060304 J95  0.2-  0.1-    060305 673  0.7+  1.0+    060306 703  0.5-  0.2-
060305 932  0.1+  0.1-    060305 673  0.4+  1.0+    060306 703  0.2+  1.4-
060305 932  0.2+  0.1-    060305 673  1.8+  0.8+    060306 703  0.3-  0.8+
060305 932  0.0   0.1-    060305 J95  0.5+  0.2+
060305 932  0.3-  0.2-    060305 J95  0.2-  0.1-

Ephemeris:
2006 EW                  a,e,i = 1.66, 0.40, 7                   q = 0.9882
Date    TT    R. A. (2000) Decl.     Delta      r     Elong.  Phase     V
2006 03 06    08 40.64   +25 30.9    0.0692   1.046   140.2    37.4    19.3
2006 03 11    09 48.75   +27 46.2    0.0838   1.065   147.1    30.5    19.6
2006 03 16    10 36.47   +27 46.7    0.103    1.085   149.7    27.5    20.0
2006 03 21    11 08.84   +26 53.3    0.126    1.107   150.3    26.5    20.4
2006 03 26    11 31.23   +25 40.8    0.151    1.131   150.0    26.2    20.9
2006 03 31    11 47.33   +24 21.3    0.178    1.156   149.2    26.3    21.3
2006 04 05    11 59.48   +22 58.8    0.208    1.182   148.1    26.6    21.7
2006 04 10    12 09.10   +21 35.1    0.239    1.209   146.7    27.1    22.0
2006 04 15    12 17.08   +20 10.9    0.273    1.237   145.0    27.7    22.4

Kyle E. Smalley              (C) Copyright 2006 MPC           M.P.E.C. 2006-E19

Read MPEC 2006-E18 Read MPEC 2006-E20


Our Web policy. Index to the CBAT/MPC/ICQ pages.


Valid HTML 4.01!